EW3212 Weather Reports


time (UTC)temp
C
wind
direction
speed
KPH
gust
KPH
rain 1hr
cm
rain 24hr
cm
rain mn
cm
humidity
%
barometer
mb
20260903025033 25 261 0.0 0.0 0.00 0.00 0.00 79 1013.8
20260903024051 25 261 0.0 0.0 0.00 0.00 0.00 79 1013.8
20260903023033 25 261 0.0 0.0 0.00 0.00 0.00 79 1013.8
20260903022046 25 261 0.0 0.0 0.00 0.00 0.00 78 1013.8
20260903021058 26 261 0.0 0.0 0.00 0.00 0.00 78 1013.8
20260903020051 26 261 0.0 0.0 0.00 0.00 0.00 77 1013.7
20260903015109 26 261 0.0 0.0 0.00 0.00 0.00 76 1013.8
20260903014047 26 261 0.0 0.0 0.00 0.00 0.00 75 1013.6
20260903013034 27 261 0.0 0.0 0.00 0.00 0.00 74 1013.6
20260903012001 27 261 0.0 0.0 0.00 0.00 0.00 73 1013.5
20260903010957 27 261 0.0 0.0 0.00 0.00 0.00 71 1013.4
20260903010020 28 261 0.0 0.0 0.00 0.00 0.00 69 1013.3
20260903004952 28 261 0.0 0.0 0.00 0.00 0.00 68 1013.2
20260903003942 29 261 0.0 0.0 0.00 0.00 0.00 65 1013.2
20260903002944 30 261 0.0 0.0 0.00 0.00 0.00 62 1013.2
20260903002005 30 261 0.0 0.0 0.00 0.00 0.00 61 1013.2
20260903000952 31 261 0.0 0.0 0.00 0.00 0.00 59 1013.1
20260902234815 32 261 0.0 0.0 0.00 0.00 0.00 55 1013.0
20260902232654 32 223 0.0 0.0 0.00 0.00 0.00 52 1013.0
20260902231710 32 251 0.0 0.0 0.00 0.00 0.00 51 1013.0
20260902230700 32 277 0.0 0.0 0.00 0.00 0.00 51 1013.0
20260902224556 33 242 0.0 0.0 0.00 0.00 0.00 49 1013.1
20260902223556 33 225 0.0 0.0 0.00 0.00 0.00 49 1013.1
20260902222618 33 250 0.0 0.0 0.00 0.00 0.00 48 1013.1
20260902221639 33 201 0.0 0.0 0.00 0.00 0.00 48 1013.0
20260902220635 33 253 0.0 0.0 0.00 0.00 0.00 49 1013.2
20260902215627 33 232 0.0 0.0 0.00 0.00 0.00 49 1013.1
20260902214627 33 279 0.0 0.0 0.00 0.00 0.00 49 1013.2
20260902213620 33 234 0.0 0.0 0.00 0.00 0.00 48 1013.2
20260902212622 34 213 0.0 0.0 0.00 0.00 0.00 47 1013.3
20260902211634 34 243 0.0 0.0 0.00 0.00 0.00 48 1013.3
20260902210640 35 259 0.0 0.0 0.00 0.00 0.00 47 1013.4
20260902205650 35 290 0.0 3.2 0.00 0.00 0.00 44 1013.5
20260902204714 35 257 0.0 0.0 0.00 0.00 0.00 43 1013.5
20260902203711 35 296 0.0 0.0 0.00 0.00 0.00 44 1013.6
20260902202731 35 280 0.0 0.0 0.00 0.00 0.00 43 1013.7
20260902201717 36 275 0.0 0.0 0.00 0.00 0.00 43 1013.8
20260902200726 36 221 0.0 0.0 0.00 0.00 0.00 40 1013.9
20260902194602 36 189 0.0 0.0 0.00 0.00 0.00 41 1014.1
20260902193546 36 294 0.0 1.6 0.00 0.00 0.00 41 1014.2
20260902192606 36 263 0.0 0.0 0.00 0.00 0.00 39 1014.2
20260902191535 36 270 0.0 0.0 0.00 0.00 0.00 42 1014.3
20260902190554 36 216 0.0 0.0 0.00 0.00 0.00 45 1014.5
20260902185602 35 209 0.0 0.0 0.00 0.00 0.00 44 1014.5
20260902184624 35 246 0.0 0.0 0.00 0.00 0.00 46 1014.6
20260902183629 35 223 0.0 0.0 0.00 0.00 0.00 46 1014.7
20260902182647 35 223 0.0 0.0 0.00 0.00 0.00 45 1014.8
20260902181708 35 251 0.0 8.0 0.00 0.00 0.00 45 1014.8
20260902180722 35 169 0.0 0.0 0.00 0.00 0.00 49 1014.7
20260902174546 35 232 0.0 0.0 0.00 0.00 0.00 44 1015.0
20260902173512 35 221 0.0 0.0 0.00 0.00 0.00 45 1015.4
20260902172444 35 271 0.0 0.0 0.00 0.00 0.00 50 1015.4
20260902171435 35 219 0.0 0.0 0.00 0.00 0.00 48 1015.5
20260902170418 35 287 0.0 0.0 0.00 0.00 0.00 49 1015.5
20260902164251 34 232 0.0 0.0 0.00 0.00 0.00 51 1015.6
20260902163247 34 285 0.0 0.0 0.00 0.00 0.00 49 1015.7
20260902162238 33 217 0.0 0.0 0.00 0.00 0.00 50 1015.6
20260902161302 33 263 0.0 0.0 0.00 0.00 0.00 51 1015.6
20260902155057 33 208 0.0 0.0 0.00 0.00 0.00 55 1015.8
20260902154118 32 246 0.0 0.0 0.00 0.00 0.00 55 1016.0
20260902152034 32 254 0.0 0.0 0.00 0.00 0.00 58 1015.9
20260902151012 31 271 0.0 0.0 0.00 0.00 0.00 57 1015.9
20260902150024 31 251 0.0 0.0 0.00 0.00 0.00 58 1016.0
20260902144950 31 222 0.0 0.0 0.00 0.00 0.00 59 1015.9
20260902143917 30 232 0.0 0.0 0.00 0.00 0.00 60 1016.0
20260902142901 30 212 0.0 0.0 0.00 0.00 0.00 62 1015.9
20260902140717 29 239 0.0 0.0 0.00 0.00 0.00 67 1016.1
20260902135645 28 236 0.0 0.0 0.00 0.00 0.00 69 1016.0
20260902134639 27 239 0.0 0.0 0.00 0.00 0.00 72 1016.0
20260902133649 27 254 0.0 0.0 0.00 0.00 0.00 78 1015.9
20260902132621 26 253 0.0 0.0 0.00 0.00 0.00 81 1016.1
20260902130359 24 227 0.0 0.0 0.00 0.00 0.00 87 1016.0
20260902125418 24 240 0.0 0.0 0.00 0.00 0.00 87 1016.0
20260902124419 23 240 0.0 0.0 0.00 0.00 0.00 88 1016.0
20260902122250 23 238 0.0 0.0 0.00 0.00 0.00 88 1016.0
20260902120105 22 238 0.0 0.0 0.00 0.00 0.00 88 1015.8
20260902115108 21 238 0.0 0.0 0.00 0.00 0.00 87 1015.7
20260902114038 21 238 0.0 0.0 0.00 0.00 0.00 87 1015.5
20260902113053 21 238 0.0 0.0 0.00 0.00 0.00 86 1015.5
20260902112114 21 238 0.0 0.0 0.00 0.00 0.00 86 1015.4
20260902110031 21 238 0.0 0.0 0.00 0.00 0.00 86 1015.3
20260902105003 21 238 0.0 0.0 0.00 0.00 0.00 86 1015.3
20260902102902 21 238 0.0 0.0 0.00 0.00 0.00 86 1015.2
20260902101829 21 238 0.0 0.0 0.00 0.00 0.00 86 1015.2
20260902100823 21 238 0.0 0.0 0.00 0.00 0.00 85 1015.3
20260902095800 21 238 0.0 0.0 0.00 0.00 0.00 85 1015.3
20260902094805 21 238 0.0 0.0 0.00 0.00 0.00 85 1015.2
20260902092713 21 238 0.0 0.0 0.00 0.00 0.00 85 1015.1
20260902091733 21 238 0.0 0.0 0.00 0.00 0.00 85 1014.9
20260902090728 21 238 0.0 0.0 0.00 0.00 0.00 85 1015.0
20260902085657 21 238 0.0 0.0 0.00 0.00 0.00 85 1015.0
20260902084712 22 238 0.0 0.0 0.00 0.00 0.00 85 1014.9
20260902083727 22 238 0.0 0.0 0.00 0.00 0.00 85 1014.8
20260902082722 22 238 0.0 0.0 0.00 0.00 0.00 85 1014.9
20260902081721 22 238 0.0 0.0 0.00 0.00 0.00 85 1014.7
20260902080723 22 238 0.0 0.0 0.00 0.00 0.00 85 1014.7
20260902075705 22 238 0.0 0.0 0.00 0.00 0.00 85 1014.6
20260902074719 22 238 0.0 0.0 0.00 0.00 0.00 85 1014.5
20260902073726 22 238 0.0 0.0 0.00 0.00 0.00 85 1014.5
20260902072733 22 238 0.0 0.0 0.00 0.00 0.00 85 1014.4
20260902071727 23 238 0.0 0.0 0.00 0.00 0.00 85 1014.4
20260902070733 23 238 0.0 0.0 0.00 0.00 0.00 85 1014.4
20260902063533 23 238 0.0 0.0 0.00 0.00 0.00 85 1014.4
20260902062549 22 238 0.0 0.0 0.00 0.00 0.00 85 1014.4
20260902060453 22 238 0.0 0.0 0.00 0.00 0.00 84 1014.6
20260902055430 22 238 0.0 0.0 0.00 0.00 0.00 83 1014.6
20260902054423 22 238 0.0 0.0 0.00 0.00 0.00 82 1014.6
20260902053425 22 238 0.0 0.0 0.00 0.00 0.00 83 1014.6
20260902052410 22 238 0.0 0.0 0.00 0.00 0.00 83 1014.6
20260902051348 22 238 0.0 0.0 0.00 0.00 0.00 82 1014.5
20260902050329 22 238 0.0 0.0 0.00 0.00 0.00 82 1014.6
20260902045350 23 238 0.0 0.0 0.00 0.00 0.00 83 1014.6
20260902044359 23 238 0.0 0.0 0.00 0.00 0.00 83 1014.6
20260902043418 23 238 0.0 0.0 0.00 0.00 0.00 83 1014.5
20260902042442 23 238 0.0 0.0 0.00 0.00 0.00 82 1014.6
20260902041453 23 238 0.0 0.0 0.00 0.00 0.00 82 1014.7
20260902040425 23 238 0.0 0.0 0.00 0.00 0.00 82 1014.7
20260902035400 23 238 0.0 0.0 0.00 0.00 0.00 82 1014.6
20260902034346 23 238 0.0 0.0 0.00 0.00 0.00 81 1014.6
20260902033400 23 238 0.0 0.0 0.00 0.00 0.00 81 1014.5
20260902032414 23 238 0.0 0.0 0.00 0.00 0.00 81 1014.6
20260902031348 23 238 0.0 0.0 0.00 0.00 0.00 81 1014.6